Station ESPP4 - 9752695 - Esperanza, Viequez Island, PR Image indicating link to RSS feed of recent meteorological observations for station ESPP4


Conditions at ESPP4 as of
(9:48 pm AST on 06/20/2024)
0148 GMT on 06/21/2024:
     

Click on the graph icon in the table below to see a time series plot of the last five days of that observation.

5-day plot - Wind Direction Wind Direction (WDIR):ENE ( 60 deg true )
5-day plot - Wind Speed Wind Speed (WSPD): 4.1 kts
5-day plot - Wind Gust Wind Gust (GST): 6.0 kts
5-day plot - Atmospheric Pressure Atmospheric Pressure (PRES):30.01 in
5-day plot - Air Temperature Air Temperature (ATMP): 79.2 °F
5-day plot - Water Temperature Water Temperature (WTMP): 86.9 °F
5-day plot - Wind Speed at 10 Meters Wind Speed at 10 meters (WSPD10M): 3.9 kts
5-day plot - Wind Speed at 20 Meters Wind Speed at 20 meters (WSPD20M): 5.8 kts
5-day plot -  Wind Speed, Wind Gust and Atmospheric Pressure Combined plot of Wind Speed, Gust, and Air Pressure
NOS Water Level Observation Network Water Level
Previous observations
TIME
(AST)
5-day plot - Wind Direction
WDIR
 
5-day plot - Wind Speed
WSPD
kts
5-day plot - Wind Gust
GST
kts
5-day plot - Wave Height
WVHT
ft
5-day plot - Dominant Wave Period
DPD
sec
5-day plot - Average Wave Period
APD
sec
5-day plot - Mean Wave Direction
MWD
 
5-day plot - Atmospheric Pressure
PRES
in
5-day plot - Pressure Tendency
PTDY
in
5-day plot - Air Temperature
ATMP
°F
5-day plot - Water Temperature
WTMP
°F
5-day plot - Dew Point
DEWP
°F
5-day plot - Salinity
SAL
psu
5-day plot - Visibility
VIS
nmi
5-day plot - Tide (above MLLW)
TIDE
ft
2024-06-20 09:42 pmNNE 2.9 5.1----30.01- 78.4 86.9----
2024-06-20 09:36 pmNNE 1.9 1.9----30.01- 78.6 86.9----
2024-06-20 09:30 pm NE 1.9 2.9----30.01- 78.6 86.9----
2024-06-20 09:24 pm NE 1.9 2.9----30.01- 78.6 86.9----
2024-06-20 09:18 pm NE 1.9 4.1----30.01- 78.6 86.9----
2024-06-20 09:12 pm NE 1.9 2.9----30.00- 78.8 86.9----
2024-06-20 09:06 pm NE 1.9 4.1----30.00- 78.6 86.9----
2024-06-20 09:00 pmNNE 2.9 4.1----30.00+0.03 78.6 86.9----
2024-06-20 08:54 pm NE 2.9 4.1----30.00- 78.6 86.9----
2024-06-20 08:48 pmNNE 2.9 5.1----30.00- 78.6 86.9----
2024-06-20 08:42 pmNNE 2.9 5.1----30.00- 78.6 86.9----
2024-06-20 08:36 pm NE 4.1 7.0----30.00- 78.6 86.9----
2024-06-20 08:30 pm NE 2.9 6.0----30.00- 78.4 86.9----
2024-06-20 08:24 pmNNE 2.9 7.0----30.00- 78.3 86.9----
2024-06-20 08:18 pm NE 6.0 9.9----30.01- 78.8 86.9----
2024-06-20 08:12 pm NE 5.1 14.0----30.01- 79.0 86.9----
2024-06-20 08:06 pmNNE 2.9 6.0----30.00- 81.3 87.1----
2024-06-20 08:00 pmNNE 4.1 5.1----30.00+0.03 81.1 87.1----
2024-06-20 07:54 pmNNE 4.1 6.0----30.00- 81.3 87.1----
2024-06-20 07:48 pmNNE 2.9 5.1----30.00- 81.5 87.1----
2024-06-20 07:42 pmNNE 2.9 5.1----29.99- 82.0 87.1----
2024-06-20 07:36 pm NE 2.9 6.0----29.99- 82.2 87.1----
2024-06-20 07:30 pm NE 4.1 8.0----29.99- 82.4 87.3----
2024-06-20 07:24 pm NE 4.1 6.0----29.99- 82.6 87.3----
2024-06-20 07:18 pm NE 4.1 6.0----29.99- 82.9 87.3----
2024-06-20 07:12 pmENE 5.1 11.1----29.98- 84.0 87.3----
2024-06-20 07:06 pmENE 7.0 12.0----29.98- 84.0 87.3----
2024-06-20 07:00 pmENE 8.9 13.0----29.98+0.01 84.2 87.3----
2024-06-20 06:54 pm E 11.1 15.9----29.98- 84.2 87.3----
2024-06-20 06:48 pm E 9.9 14.0----29.98- 84.2 87.3----
2024-06-20 06:42 pmENE 6.0 9.9----29.97- 84.4 87.3----
2024-06-20 06:36 pmENE 7.0 9.9----29.97- 84.7 87.4----
2024-06-20 06:30 pmENE 6.0 13.0----29.97-- 87.4----
2024-06-20 06:24 pmENE 6.0 8.9----29.97-- 87.4----
2024-06-20 06:18 pmENE 6.0 8.9----29.97-------
2024-06-20 06:12 pmENE 6.0 11.1----29.97-------
2024-06-20 06:06 pm NE 5.1 9.9----29.97-------
2024-06-20 06:00 pmENE 6.0 9.9----29.97-0.01 84.9 87.4----
2024-06-20 05:54 pmENE 5.1 8.9----29.97- 84.9 87.4----
2024-06-20 05:48 pmENE 8.0 12.0----29.97- 85.1 87.4----
2024-06-20 05:42 pmENE 7.0 11.1----29.97- 84.9 87.4----
2024-06-20 05:36 pmENE 6.0 9.9----29.97- 85.1 87.4----
2024-06-20 05:30 pmENE 7.0 12.0----29.97- 85.1 87.6----
2024-06-20 05:24 pmENE 7.0 11.1----29.97- 85.1 87.6----
2024-06-20 05:18 pmENE 6.0 13.0----29.97- 85.3 87.6----
2024-06-20 05:12 pm NE 5.1 11.1----29.96- 85.1 87.6----
2024-06-20 05:06 pm NE 7.0 11.1----29.97- 85.3 87.6----
2024-06-20 05:00 pmENE 6.0 11.1----29.97-0.02 85.6 87.8----
2024-06-20 04:54 pmENE 8.0 14.0----29.97- 85.8 87.8----
2024-06-20 04:48 pmENE 8.0 13.0----29.97- 85.8 87.8----
2024-06-20 04:42 pmENE 8.0 12.0----29.97- 85.6 88.0----
2024-06-20 04:36 pmENE 7.0 13.0----29.97- 85.5 88.0----
2024-06-20 04:30 pm E 8.0 13.0----29.97- 85.5 88.0----
2024-06-20 04:24 pm E 8.9 15.0----29.97- 85.5 88.0----
2024-06-20 04:18 pm E 8.9 15.0----29.97- 85.5 88.0----
2024-06-20 04:12 pm E 8.0 13.0----29.97- 85.5 88.2----
2024-06-20 04:06 pmENE 7.0 11.1----29.97- 85.5 88.2----
2024-06-20 04:00 pm E 8.0 13.0----29.97-0.03 85.6 88.2----
2024-06-20 03:54 pm E 8.9 13.0----29.98- 85.6 88.2----
2024-06-20 03:48 pm E 8.9 13.0----29.98- 85.8 88.3----
2024-06-20 03:42 pm E 9.9 15.0----29.98- 86.0 88.3----
2024-06-20 03:36 pmENE 8.0 15.0----29.98- 86.0 88.3----
2024-06-20 03:30 pmENE 11.1 15.0----29.98-- 88.3----
2024-06-20 03:24 pmENE 8.9 14.0----29.98-- 88.3----
2024-06-20 03:18 pmENE 8.0 13.0----29.98- 86.7 88.3----
2024-06-20 03:12 pmENE 8.0 13.0----29.98- 86.7 88.2----
2024-06-20 03:06 pm E 8.9 14.0----29.98- 86.4 88.3----
2024-06-20 03:00 pm E 9.9 14.0----29.98-0.03 86.2 88.3----
2024-06-20 02:54 pm E 8.0 13.0----29.98- 86.2 88.3----
2024-06-20 02:48 pmENE 9.9 14.0----29.98- 86.4 88.3----
2024-06-20 02:42 pmENE 9.9 15.0----29.98- 86.2 88.3----
2024-06-20 02:36 pmENE 8.9 15.0----29.98- 86.4 88.3----
2024-06-20 02:30 pm E 8.0 12.0----29.98- 86.5 88.3----
2024-06-20 02:24 pm E 8.0 13.0----29.98- 86.5 88.3----
2024-06-20 02:18 pmENE 8.9 12.0----29.98- 86.5 88.3----
2024-06-20 02:12 pm E 9.9 14.0----29.99- 86.2 88.3----
2024-06-20 02:06 pmENE 8.0 13.0----29.99- 86.2 88.3----
2024-06-20 02:00 pm E 8.9 13.0----29.99-0.02 86.0 88.3----
2024-06-20 01:54 pmENE 9.9 13.0----29.99- 86.2 88.5----
2024-06-20 01:48 pm E 8.9 12.0----30.00- 86.2 88.5----
2024-06-20 01:42 pm E 8.0 15.0----30.00- 86.4 88.3----
2024-06-20 01:36 pm E 8.9 17.1----30.00- 86.2 88.3----
2024-06-20 01:30 pmENE 8.9 15.0----30.00- 86.2 88.3----
2024-06-20 01:24 pm E 8.9 13.0----30.00- 86.4 88.3----
2024-06-20 01:18 pm E 8.9 15.9----30.00- 86.2 88.2----
2024-06-20 01:12 pm E 8.0 15.0----30.00- 86.0 88.2----
2024-06-20 01:06 pm E 9.9 18.1----30.00- 85.6 88.0----
2024-06-20 01:00 pm E 11.1 15.0----30.00+0.00 85.6 88.0----
2024-06-20 12:54 pm E 8.9 14.0----30.01- 85.8 87.8----
2024-06-20 12:48 pm E 9.9 15.0----30.01- 85.5 87.6----
2024-06-20 12:42 pm E 8.9 15.0----30.01- 85.5 87.6----
2024-06-20 12:36 pm E 11.1 14.0----30.01- 85.1 87.4----
2024-06-20 12:30 pm E 12.0 15.9----30.01- 84.0 87.4----
2024-06-20 12:24 pm E 15.9 21.0----30.01- 83.7 87.1----
2024-06-20 12:18 pm E 15.0 19.0----30.01- 84.6 87.1----
2024-06-20 12:12 pmENE 9.9 15.9----30.01- 86.2 86.9----
2024-06-20 12:06 pm E 8.0 15.9----30.01- 86.2 86.9----
2024-06-20 12:00 pmENE 9.9 13.0----30.01+0.02 86.0 86.7----
2024-06-20 11:54 am E 8.9 17.1----30.01- 86.0 86.7----
2024-06-20 11:48 am E 12.0 15.9----30.01- 85.6 86.7----
2024-06-20 11:42 am E 9.9 15.0----30.01- 85.6 86.7----
2024-06-20 11:36 am E 8.9 14.0----30.01- 85.6 86.7----
2024-06-20 11:30 am E 8.9 14.0----30.01- 85.8 86.5----
2024-06-20 11:24 am E 8.9 14.0----30.01- 84.4 86.5----
2024-06-20 11:18 am NE 8.9 15.9----30.01- 83.7 86.5----
2024-06-20 11:12 am E 11.1 15.9----30.01- 85.6 86.5----
2024-06-20 11:06 am E 9.9 14.0----30.01- 85.8 86.4----
2024-06-20 11:00 am E 11.1 15.9----30.01+0.04 86.2 86.4----
2024-06-20 10:54 am E 11.1 15.9----30.01- 86.2 86.4----
2024-06-20 10:48 am E 12.0 15.9----30.01- 86.0 86.2----
2024-06-20 10:42 am E 12.0 15.9----30.01- 85.8 86.2----
2024-06-20 10:36 am E 12.0 18.1----30.01- 86.0 86.2----
2024-06-20 10:30 am E 12.0 17.1----30.01- 86.2 86.2----
2024-06-20 10:24 amENE 12.0 17.1----30.01- 86.0 86.2----
2024-06-20 10:18 am E 12.0 18.1----30.01- 86.2 86.0----
2024-06-20 10:12 am E 9.9 17.1----30.01- 86.2 86.0----
2024-06-20 10:06 am E 11.1 15.0----30.01- 85.8 86.0----
2024-06-20 10:00 am E 9.9 15.9----30.01+0.05 86.2 86.0----
2024-06-20 09:54 am E 8.9 12.0----30.00- 85.8 86.0----
2024-06-20 09:48 am E 8.0 17.1----30.00- 85.8 86.0----
2024-06-20 09:42 am E 13.0 17.1----30.00- 85.8 86.0----
2024-06-20 09:36 am E 12.0 15.9----30.00- 85.6 85.8----
2024-06-20 09:30 am E 12.0 19.0----30.00- 85.6 85.8----
2024-06-20 09:24 am E 12.0 15.9----30.00- 85.5 85.8----
2024-06-20 09:18 am E 12.0 15.9----29.99- 85.3 85.8----
2024-06-20 09:12 amENE 8.9 14.0----29.99- 85.5 85.8----
2024-06-20 09:06 amENE 8.9 15.0----29.99- 85.3 85.8----
2024-06-20 09:00 am E 9.9 15.9----29.99+0.05 84.9 85.8----
2024-06-20 08:54 am E 9.9 15.0----29.99- 85.3 85.8----
2024-06-20 08:48 amENE 8.9 13.0----29.99- 84.7 85.8----
2024-06-20 08:42 amENE 9.9 13.0----29.99- 84.9 85.8----
2024-06-20 08:36 amENE 8.9 14.0----29.98- 84.9 85.8----
2024-06-20 08:30 am E 8.9 14.0----29.98- 84.9 85.8----
2024-06-20 08:24 am E 9.9 14.0----29.98- 84.9 85.8----
2024-06-20 08:18 amENE 11.1 15.9----29.98- 84.9 85.8----
2024-06-20 08:12 am E 9.9 17.1----29.98- 85.1 85.8----
2024-06-20 08:06 am E 8.9 15.0----29.97- 84.9 86.0----
2024-06-20 08:00 am E 11.1 14.0----29.97+0.04 84.6 86.2----
2024-06-20 07:54 amENE 9.9 15.0----29.97- 84.6 86.2----
2024-06-20 07:48 am E 9.9 15.0----29.97- 84.6 86.2----
2024-06-20 07:42 am E 8.0 17.1----29.97- 84.7 86.2----
2024-06-20 07:36 am E 11.1 15.0----29.97- 84.4 86.4----
2024-06-20 07:30 amENE 8.9 18.1----29.97- 84.4 86.4----
2024-06-20 07:24 amENE 9.9 15.9----29.96- 84.4 86.4----
2024-06-20 07:18 am E 8.9 13.0----29.96- 84.4 86.4----
2024-06-20 07:12 am E 9.9 15.0----29.96- 84.4 86.4----
2024-06-20 07:06 am E 8.0 13.0----29.96- 84.0 86.4----
2024-06-20 07:00 am E 8.9 12.0----29.96+0.03 84.4 86.4----
2024-06-20 06:54 am E 8.0 13.0----29.96- 84.2 86.4----
2024-06-20 06:48 am E 8.0 15.0----29.96- 84.2 86.4----
2024-06-20 06:42 am E 8.9 12.0----29.95- 84.2 86.4----
2024-06-20 06:36 amENE 7.0 12.0----29.95- 83.5 86.4----
2024-06-20 06:30 amENE 8.0 14.0----29.95- 83.7 86.4----
2024-06-20 06:24 amENE 7.0 11.1----29.95- 83.3 86.4----
2024-06-20 06:18 amENE 5.1 9.9----29.95-- 86.4----
2024-06-20 06:12 am NE 1.9 7.0----29.95- 81.7 86.5----
2024-06-20 06:06 amENE 8.0 13.0----29.94- 83.3 86.5----
2024-06-20 06:00 amENE 8.0 13.0----29.94+0.02 83.1 86.5----
2024-06-20 05:54 amENE 7.0 11.1----29.94- 82.0 86.5----
2024-06-20 05:48 am NE 4.1 8.0----29.94- 80.6 86.5----
2024-06-20 05:42 am NE 2.9 6.0----29.94- 79.9 86.5----
2024-06-20 05:36 am NE 2.9 6.0----29.94- 80.4 86.5----
2024-06-20 05:30 amNNE 4.1 13.0----29.93- 81.5 86.7----
2024-06-20 05:24 amENE 8.0 13.0----29.94- 83.1 86.7----
2024-06-20 05:18 amENE 8.9 14.0----29.93- 83.3 86.7----
2024-06-20 05:12 amENE 7.0 13.0----29.93- 83.1 86.7----
2024-06-20 05:06 amENE 8.0 15.0----29.93- 82.9 86.7----
2024-06-20 05:00 amENE 7.0 11.1----29.93+0.00 81.1 86.9----
2024-06-20 04:54 amNNE 4.1 7.0----29.93- 79.7 86.9----
2024-06-20 04:48 am NE 2.9 8.0----29.93-- 86.9----
2024-06-20 04:42 amENE 7.0 11.1----29.93- 82.4 86.9----
2024-06-20 04:36 amENE 7.0 11.1----29.93- 81.9 86.9----
2024-06-20 04:30 am NE 2.9 8.9----29.93- 79.5 87.1----
2024-06-20 04:24 am NE 2.9 6.0----29.93- 79.2 87.1----
2024-06-20 04:18 amNNE 2.9 7.0----29.93-- 87.1----
2024-06-20 04:12 am NE 2.9 7.0----29.93- 79.7 87.1----
2024-06-20 04:06 am NE 4.1 8.0----29.93- 79.9 87.1----
2024-06-20 04:00 am NE 4.1 6.0----29.93-0.04 79.7 87.1----
2024-06-20 03:54 am NE 5.1 6.0----29.93- 79.5 87.1----
2024-06-20 03:48 amNNE 2.9 5.1----29.93-- 87.1----
2024-06-20 03:42 am NE 4.1 5.1----29.92- 79.5 87.1----
2024-06-20 03:36 am NE 4.1 8.0----29.92- 79.7 87.1----
2024-06-20 03:30 am NE 5.1 8.9----29.92- 79.3 87.1----
2024-06-20 03:24 am NE 4.1 7.0----29.92- 79.3 87.1----
2024-06-20 03:18 amNNE 5.1 6.0----29.92-------
2024-06-20 03:12 amNNE 4.1 6.0----29.92- 79.3 87.1----
2024-06-20 03:06 amNNE 4.1 6.0----29.92- 79.3 87.1----
2024-06-20 03:00 am NE 4.1 6.0----29.92-0.06 79.5 87.1----
2024-06-20 02:54 amNNE 4.1 8.0----29.92- 79.5 87.1----
2024-06-20 02:48 am NE 4.1 6.0----29.93-------
2024-06-20 02:42 amNNE 2.9 7.0----29.93- 79.5 87.3----
2024-06-20 02:36 am NE 2.9 7.0----29.93- 79.5 87.3----
2024-06-20 02:30 amENE 4.1 7.0----29.93- 79.5 87.3----
2024-06-20 02:24 am NE 4.1 7.0----29.93- 79.3 87.3----
2024-06-20 02:18 am NE 2.9 6.0----29.93- 79.2 87.3----
2024-06-20 02:12 am NE 2.9 5.1----29.93- 79.0 87.3----
2024-06-20 02:06 amNNE 2.9 5.1----29.93- 78.8 87.3----
2024-06-20 02:00 amNNE 2.9 6.0----29.94-0.05 78.8 87.3----
2024-06-20 01:54 amNNE 2.9 5.1----29.94- 78.8 87.3----
2024-06-20 01:48 amNNE 4.1 7.0----29.94- 78.8 87.3----
2024-06-20 01:42 am NE 4.1 7.0----29.94- 78.6 87.3----
2024-06-20 01:36 amNNE 4.1 6.0----29.94- 78.3 87.3----
2024-06-20 01:30 amNNE 4.1 5.1----29.95- 78.3 87.3----
2024-06-20 01:24 amNNE 2.9 5.1----29.95- 78.3 87.4----
2024-06-20 01:18 amNNE 2.9 5.1----29.96- 77.9 87.4----
2024-06-20 01:12 am N 2.9 4.1----29.96- 77.7 87.4----
2024-06-20 01:06 am N 2.9 5.1----29.96- 78.1 87.4----
2024-06-20 01:00 amNNE 4.1 6.0----29.96-0.01 78.1 87.4----
2024-06-20 12:54 am NE 4.1 8.0----29.96- 77.9 87.4----
2024-06-20 12:48 am NE 5.1 8.9----29.97- 78.3 87.4----
2024-06-20 12:42 amNNE 1.9 4.1----29.97- 78.6 87.4----
2024-06-20 12:36 am N 2.9 5.1----29.96- 78.4 87.4----
2024-06-20 12:30 amNNE 2.9 5.1----29.97- 78.4 87.4----
2024-06-20 12:24 am N 2.9 5.1----29.97- 78.3 87.4----
2024-06-20 12:18 am N 2.9 4.1----29.98- 78.1 87.4----
2024-06-20 12:12 am N 2.9 4.1----29.98- 78.1 87.4----
2024-06-20 12:06 amNNE 2.9 5.1----29.98- 78.1 87.4----
2024-06-20 12:00 amNNE 4.1 6.0----29.98+0.01 78.1 87.4----
2024-06-19 11:54 pmNNE 2.9 5.1----29.98- 78.4 87.4----
2024-06-19 11:48 pmNNE 2.9 6.0----29.98- 78.3 87.4----
2024-06-19 11:42 pmNNE 4.1 5.1----29.99- 78.4 87.4----
2024-06-19 11:36 pm NE 1.9 5.1----29.99- 78.3 87.4----
2024-06-19 11:30 pmNNE 2.9 5.1----29.99- 77.9 87.4----
2024-06-19 11:24 pmNNE 2.9 4.1----29.99- 78.1 87.4----
2024-06-19 11:18 pmNNE 4.1 5.1----29.99- 78.1 87.6----
2024-06-19 11:12 pmNNE 4.1 5.1----29.99- 77.9 87.6----
2024-06-19 11:06 pmNNE 4.1 6.0----29.99- 77.9 87.6----
2024-06-19 11:00 pm N 2.9 4.1----29.99+0.04 78.1 87.6----
2024-06-19 10:54 pm N 1.9 2.9----30.00- 78.3 87.6----
2024-06-19 10:48 pm N 1.9 4.1----30.00- 78.3 87.6----
2024-06-19 10:42 pm N 1.9 2.9----30.00- 78.1 87.6----
2024-06-19 10:36 pm- 0.0 5.1----30.00- 78.1 87.4----
2024-06-19 10:30 pmENE 4.1 7.0----29.99- 78.4 87.4----
2024-06-19 10:24 pmENE 8.0 12.0----30.00- 80.1 87.4----
2024-06-19 10:18 pm- 0.0 1.9----29.99- 80.2 87.4----
2024-06-19 10:12 pm E 1.0 4.1----29.98- 80.1 87.4----
2024-06-19 10:06 pmNNE 1.9 4.1----29.98- 79.9 87.4----
2024-06-19 10:00 pm N 2.9 5.1----29.98+0.04 79.5 87.4----
2024-06-19 09:54 pm N 1.9 4.1----29.98- 79.7 87.4----